UNISAT 2

Satellite information

Favourite Embed

Satellite Type and Status

PAYLOADIN ORBIT

Key statistics

Satellite UNISAT 2 at a glance.

Uptime

8394

Days in orbit

Revolutions

≈ 14.8

Per day

Orbit

LEO

Low Earth Orbit

Inclination

64.6

Latest

Satellite identification and parameters

Extended collection of information and parameters for UNISAT 2.

Object identification

Identified? True

Debris? False

Object name: UNISAT 2

International designator: 2002-058D

Object number (NORAD): 27608

Object ID (CCSDS): 27608

Country: ITALY (IT)

Current information (Y/N): Y

RCS size: MEDIUM

Orbital parameters

Period: 97.05 minutes

Inclination: 64.5526 deg

SMA: 6995.572 km

Apoapsis: 661.111 km

Periapsis: 573.762 km

RAAN: 241.0582 deg

Eccentricy: 0.00624321

Argument of periapsis: 283.5326 deg

Mean anomaly: 75.883 deg

Mean motion: 14.83774678 rev/day

Mean motion (dot): 0.00002221 rev/day2

B* drag term: 0.00027640416 1/REarth

Two-line elements (TLE)

Creation date: Dec. 12, 2025, 10:14 a.m.

Reference frame: TEME

Reference center: EARTH

Epoch: Dec. 12, 2025, 3:34 a.m. UTC

TLE line 0: 0 UNISAT 2

TLE line 1: 1 27608U 02058D 25346.14928151 .00002221 00000-0 27640-3 0 9998

TLE line 2: 2 27608 64.5526 241.0582 0062432 283.5326 75.8830 14.83774678239034

Live tracking on map

Real-time ground track for satellite UNISAT 2.

In-orbit conjunctions

There are no conjunctions computed for UNISAT 2, at the moment. Check back to stay up to date, as we update our databases every day.

Go to all conjunctions

Associated space launch

Technology satellite for OHB-System, Germany.

UNISAT 2 was lifted into orbit during the mission ‘Dnepr | AATiS-OSCAR-49’, on board a Dnepr space rocket.

The launch took place on Dec. 20, 2002, 5 p.m. from 109/95.

For more information about the launch, click the button.

Launch to space Dnepr | AATiS-OSCAR-49
Dnepr | AATiS-OSCAR-49

Agency: N/A

Status: Launch Successful

Launch date: Dec. 20, 2002, 5 p.m. UTC

Rocket: Dnepr

Launch pad: 109/95

Location: Baikonur Cosmodrome, Republic of Kazakhstan

...

Latest news about this satellite

There are no fresh news available about this satellite. Check back as we update our databases every day.


Newsletter sign-up

Weekly statistics, charts and insights to help you stay on top of the space industry.